Time,TemperatureF,DewpointF,PressureIn,WindDirection,WindDirectionDegrees,WindSpeedMPH,WindSpeedGustMPH,Humidity,HourlyPrecipIn,Conditions,Clouds,dailyrainin,SoftwareType,DateUTC
2013-09-04 00:10:00,45.4,44.0,29.98,SE,144,0.0,0.0,96,0.00,,,0.00,weatherlink.com 1.10,2013-09-04 06:10:00,
2013-09-04 00:25:00,45.2,44.0,29.98,SE,145,0.0,1.0,96,0.00,,,0.00,weatherlink.com 1.10,2013-09-04 06:25:00,
2013-09-04 00:41:00,45.0,44.0,29.99,SE,144,0.0,1.0,96,0.00,,,0.00,weatherlink.com 1.10,2013-09-04 06:41:00,
2013-09-04 00:56:00,44.8,44.0,29.99,SE,144,0.0,0.0,96,0.00,,,0.00,weatherlink.com 1.10,2013-09-04 06:56:00,
2013-09-04 01:11:00,44.5,44.0,29.99,SE,144,0.0,1.0,96,0.00,,,0.00,weatherlink.com 1.10,2013-09-04 07:11:00,
2013-09-04 01:26:00,44.4,43.0,30.00,SE,144,0.0,0.0,96,0.00,,,0.00,weatherlink.com 1.10,2013-09-04 07:26:00,
2013-09-04 01:41:00,44.1,43.0,29.99,SE,144,0.0,0.0,97,0.00,,,0.00,weatherlink.com 1.10,2013-09-04 07:41:00,
2013-09-04 01:56:00,43.9,43.0,30.00,SE,144,0.0,1.0,96,0.00,,,0.00,weatherlink.com 1.10,2013-09-04 07:56:00,
2013-09-04 02:11:00,43.7,43.0,30.00,SE,144,0.0,1.0,97,0.00,,,0.00,weatherlink.com 1.10,2013-09-04 08:11:00,
2013-09-04 02:26:00,43.5,43.0,30.00,SE,144,0.0,1.0,97,0.00,,,0.00,weatherlink.com 1.10,2013-09-04 08:26:00,
2013-09-04 02:41:00,43.3,42.0,30.01,SE,144,1.0,1.0,96,0.00,,,0.00,weatherlink.com 1.10,2013-09-04 08:41:00,
2013-09-04 02:56:00,43.4,43.0,30.00,SE,144,0.0,0.0,97,0.00,,,0.00,weatherlink.com 1.10,2013-09-04 08:56:00,
2013-09-04 03:11:00,43.6,43.0,30.00,SE,136,1.0,1.0,97,0.00,,,0.00,weatherlink.com 1.10,2013-09-04 09:11:00,
2013-09-04 03:26:00,43.8,43.0,30.01,SE,139,0.0,1.0,97,0.00,,,0.00,weatherlink.com 1.10,2013-09-04 09:26:00,
2013-09-04 03:41:00,44.0,43.0,30.01,SE,137,0.0,1.0,97,0.00,,,0.00,weatherlink.com 1.10,2013-09-04 09:41:00,
2013-09-04 03:56:00,44.3,44.0,30.01,SE,138,0.0,1.0,97,0.00,,,0.00,weatherlink.com 1.10,2013-09-04 09:56:00,
2013-09-04 04:11:00,44.7,44.0,30.01,SE,137,0.0,1.0,97,0.00,,,0.00,weatherlink.com 1.10,2013-09-04 10:11:00,
2013-09-04 04:26:00,45.1,44.0,30.00,SE,138,0.0,0.0,97,0.00,,,0.00,weatherlink.com 1.10,2013-09-04 10:26:00,
2013-09-04 04:41:00,45.2,44.0,30.00,SE,138,0.0,0.0,96,0.00,,,0.00,weatherlink.com 1.10,2013-09-04 10:41:00,
2013-09-04 04:56:00,45.1,44.0,30.01,SE,136,0.0,0.0,96,0.00,,,0.00,weatherlink.com 1.10,2013-09-04 10:56:00,
2013-09-04 05:11:00,45.1,44.0,30.02,SE,136,0.0,1.0,96,0.00,,,0.00,weatherlink.com 1.10,2013-09-04 11:11:00,
2013-09-04 05:26:00,45.0,44.0,30.02,SE,136,0.0,1.0,96,0.00,,,0.00,weatherlink.com 1.10,2013-09-04 11:26:00,
2013-09-04 05:41:00,45.2,44.0,30.01,SE,138,0.0,1.0,96,0.00,,,0.00,weatherlink.com 1.10,2013-09-04 11:41:00,
2013-09-04 05:56:00,45.2,44.0,30.02,SE,138,0.0,1.0,96,0.00,,,0.00,weatherlink.com 1.10,2013-09-04 11:56:00,
2013-09-04 06:11:00,45.3,44.0,30.02,SE,138,0.0,1.0,96,0.00,,,0.00,weatherlink.com 1.10,2013-09-04 12:11:00,
2013-09-04 06:26:00,45.6,45.0,30.03,SE,134,1.0,2.0,96,0.00,,,0.00,weatherlink.com 1.10,2013-09-04 12:26:00,
2013-09-04 06:41:00,45.7,45.0,30.03,SE,138,0.0,1.0,96,0.00,,,0.00,weatherlink.com 1.10,2013-09-04 12:41:00,
2013-09-04 06:56:00,45.8,45.0,30.03,SE,137,0.0,1.0,97,0.00,,,0.00,weatherlink.com 1.10,2013-09-04 12:56:00,
2013-09-04 07:11:00,46.0,45.0,30.03,SE,137,0.0,1.0,96,0.00,,,0.00,weatherlink.com 1.10,2013-09-04 13:11:00,
2013-09-04 07:26:00,46.3,45.0,30.03,SE,137,0.0,0.0,96,0.00,,,0.00,weatherlink.com 1.10,2013-09-04 13:26:00,
2013-09-04 07:41:00,46.8,46.0,30.04,SE,137,0.0,0.0,96,0.00,,,0.00,weatherlink.com 1.10,2013-09-04 13:41:00,
2013-09-04 07:56:00,47.6,46.0,30.04,SE,137,0.0,0.0,95,0.00,,,0.00,weatherlink.com 1.10,2013-09-04 13:56:00,
2013-09-04 08:11:00,48.4,47.0,30.03,SE,137,0.0,0.0,96,0.00,,,0.00,weatherlink.com 1.10,2013-09-04 14:11:00,
2013-09-04 08:26:00,49.2,48.0,30.03,SE,137,0.0,0.0,97,0.00,,,0.00,weatherlink.com 1.10,2013-09-04 14:26:00,
2013-09-04 08:41:00,50.1,49.0,30.03,SE,137,0.0,0.0,94,0.00,,,0.00,weatherlink.com 1.10,2013-09-04 14:41:00,
2013-09-04 08:57:00,51.0,49.0,30.02,SE,138,0.0,0.0,94,0.00,,,0.00,weatherlink.com 1.10,2013-09-04 14:57:00,
2013-09-04 09:12:00,52.2,50.0,30.02,SE,137,0.0,0.0,91,0.00,,,0.00,weatherlink.com 1.10,2013-09-04 15:12:00,
2013-09-04 09:27:00,54.7,48.0,30.02,West,275,1.0,2.0,77,0.00,,,0.00,weatherlink.com 1.10,2013-09-04 15:27:00,
2013-09-04 09:42:00,56.2,47.0,30.03,West,281,0.0,2.0,72,0.00,,,0.00,weatherlink.com 1.10,2013-09-04 15:42:00,
2013-09-04 09:57:00,57.6,48.0,30.03,West,266,0.0,2.0,71,0.00,,,0.00,weatherlink.com 1.10,2013-09-04 15:57:00,
2013-09-04 10:12:00,60.0,47.0,30.03,WNW,288,0.0,4.0,62,0.00,,,0.00,weatherlink.com 1.10,2013-09-04 16:12:00,
2013-09-04 10:27:00,62.0,45.0,30.02,WNW,285,3.0,5.0,55,0.00,,,0.00,weatherlink.com 1.10,2013-09-04 16:27:00,
2013-09-04 10:42:00,63.4,46.0,30.02,WNW,291,0.0,6.0,54,0.00,,,0.00,weatherlink.com 1.10,2013-09-04 16:42:00,
2013-09-04 10:57:00,64.5,45.0,30.02,WSW,245,0.0,6.0,50,0.00,,,0.00,weatherlink.com 1.10,2013-09-04 16:57:00,
2013-09-04 11:12:00,65.4,46.0,30.02,West,269,1.0,6.0,49,0.00,,,0.00,weatherlink.com 1.10,2013-09-04 17:12:00,
2013-09-04 11:27:00,65.7,44.0,30.02,NW,321,1.0,8.0,46,0.00,,,0.00,weatherlink.com 1.10,2013-09-04 17:27:00,
2013-09-04 11:42:00,65.8,44.0,30.01,West,269,0.0,4.0,46,0.00,,,0.00,weatherlink.com 1.10,2013-09-04 17:42:00,
2013-09-04 11:57:00,65.5,46.0,30.01,WSW,258,0.0,5.0,49,0.00,,,0.00,weatherlink.com 1.10,2013-09-04 17:57:00,
2013-09-04 12:12:00,65.3,46.0,30.00,WNW,293,1.0,2.0,50,0.00,,,0.00,weatherlink.com 1.10,2013-09-04 18:12:00,
2013-09-04 12:27:00,65.5,45.0,29.99,West,275,0.0,2.0,47,0.00,,,0.00,weatherlink.com 1.10,2013-09-04 18:27:00,
2013-09-04 12:42:00,64.9,44.0,29.99,WNW,283,0.0,1.0,47,0.00,,,0.00,weatherlink.com 1.10,2013-09-04 18:42:00,
2013-09-04 12:57:00,65.0,47.0,29.99,WNW,283,0.0,0.0,53,0.00,,,0.00,weatherlink.com 1.10,2013-09-04 18:57:00,
2013-09-04 13:12:00,65.0,50.0,29.99,WNW,283,0.0,0.0,58,0.00,,,0.00,weatherlink.com 1.10,2013-09-04 19:12:00,
2013-09-04 13:27:00,65.0,49.0,29.99,WNW,283,0.0,1.0,57,0.00,,,0.00,weatherlink.com 1.10,2013-09-04 19:27:00,
2013-09-04 13:42:00,63.1,48.0,29.98,NW,316,0.0,4.0,59,0.00,,,0.00,weatherlink.com 1.10,2013-09-04 19:42:00,
2013-09-04 13:57:00,63.1,48.0,29.98,WNW,286,0.0,1.0,59,0.00,,,0.00,weatherlink.com 1.10,2013-09-04 19:57:00,
2013-09-04 14:12:00,62.9,50.0,29.98,WNW,285,0.0,1.0,63,0.00,,,0.00,weatherlink.com 1.10,2013-09-04 20:12:00,
2013-09-04 14:27:00,63.1,48.0,29.98,WNW,285,0.0,0.0,59,0.00,,,0.00,weatherlink.com 1.10,2013-09-04 20:27:00,
2013-09-04 14:42:00,63.1,51.0,29.97,WNW,285,0.0,1.0,65,0.00,,,0.00,weatherlink.com 1.10,2013-09-04 20:42:00,
2013-09-04 14:57:00,63.6,49.0,29.97,WNW,285,0.0,0.0,59,0.00,,,0.00,weatherlink.com 1.10,2013-09-04 20:57:00,
2013-09-04 15:12:00,64.2,51.0,29.97,WNW,285,0.0,0.0,63,0.00,,,0.00,weatherlink.com 1.10,2013-09-04 21:12:00,
2013-09-04 15:27:00,62.7,52.0,29.98,WNW,285,0.0,1.0,67,0.00,,,0.00,weatherlink.com 1.10,2013-09-04 21:27:00,
2013-09-04 15:42:00,61.2,50.0,29.98,South,171,0.0,2.0,66,0.00,,,0.00,weatherlink.com 1.10,2013-09-04 21:42:00,
2013-09-04 15:57:00,60.1,50.0,29.98,West,262,0.0,2.0,70,0.00,,,0.00,weatherlink.com 1.10,2013-09-04 21:57:00,
2013-09-04 16:12:00,57.6,49.0,29.98,West,273,0.0,1.0,74,0.00,,,0.00,weatherlink.com 1.10,2013-09-04 22:12:00,
2013-09-04 16:27:00,56.7,50.0,29.99,West,273,0.0,1.0,78,0.00,,,0.00,weatherlink.com 1.10,2013-09-04 22:27:00,
2013-09-04 16:42:00,56.7,50.0,29.99,West,273,0.0,1.0,78,0.00,,,0.00,weatherlink.com 1.10,2013-09-04 22:42:00,
2013-09-04 16:57:00,57.3,49.0,30.00,WSW,240,0.0,1.0,75,0.00,,,0.00,weatherlink.com 1.10,2013-09-04 22:57:00,
2013-09-04 17:12:00,57.8,46.0,30.01,SSW,203,0.0,3.0,65,0.00,,,0.00,weatherlink.com 1.10,2013-09-04 23:12:00,
2013-09-04 17:27:00,57.2,48.0,30.02,SSE,150,0.0,1.0,71,0.00,,,0.00,weatherlink.com 1.10,2013-09-04 23:27:00,
2013-09-04 17:42:00,55.8,50.0,30.03,West,277,0.0,0.0,80,0.00,,,0.00,weatherlink.com 1.10,2013-09-04 23:42:00,
2013-09-04 17:58:00,54.5,49.0,30.03,ESE,123,0.0,-999.0,82,-99.99,,,0.00,weatherlink.com 1.10,2013-09-04 23:58:00,
2013-09-04 18:13:00,53.6,50.0,30.04,ESE,123,0.0,1.0,88,0.01,,,0.01,weatherlink.com 1.10,2013-09-05 00:13:00,
2013-09-04 18:28:00,52.7,50.0,30.03,ESE,123,0.0,1.0,89,0.02,,,0.02,weatherlink.com 1.10,2013-09-05 00:28:00,
2013-09-04 18:43:00,52.3,49.0,30.01,SSE,149,0.0,1.0,88,0.02,,,0.02,weatherlink.com 1.10,2013-09-05 00:43:00,
2013-09-04 18:58:00,51.7,49.0,29.99,SSE,148,0.0,1.0,91,0.01,,,0.02,weatherlink.com 1.10,2013-09-05 00:58:00,
2013-09-04 19:13:00,51.4,49.0,30.00,SE,146,0.0,1.0,91,0.01,,,0.02,weatherlink.com 1.10,2013-09-05 01:13:00,
2013-09-04 19:28:00,51.3,48.0,30.01,SSE,153,1.0,1.0,88,0.00,,,0.02,weatherlink.com 1.10,2013-09-05 01:28:00,
2013-09-04 19:43:00,50.7,48.0,30.01,SE,145,0.0,2.0,89,0.00,,,0.02,weatherlink.com 1.10,2013-09-05 01:43:00,
2013-09-04 19:58:00,50.5,47.0,30.02,SSE,152,0.0,1.0,88,0.00,,,0.02,weatherlink.com 1.10,2013-09-05 01:58:00,
2013-09-04 20:13:00,49.9,47.0,30.03,SSE,151,0.0,0.0,88,0.00,,,0.02,weatherlink.com 1.10,2013-09-05 02:13:00,
2013-09-04 20:28:00,49.5,47.0,30.03,SSE,151,1.0,1.0,90,0.00,,,0.02,weatherlink.com 1.10,2013-09-05 02:28:00,
2013-09-04 20:43:00,49.4,46.0,30.04,SE,144,1.0,1.0,88,0.00,,,0.02,weatherlink.com 1.10,2013-09-05 02:43:00,
2013-09-04 20:58:00,49.4,46.0,30.05,WSW,255,0.0,1.0,88,0.00,,,0.02,weatherlink.com 1.10,2013-09-05 02:58:00,
2013-09-04 21:13:00,49.2,47.0,30.06,WSW,255,0.0,0.0,91,0.00,,,0.02,weatherlink.com 1.10,2013-09-05 03:13:00,
2013-09-04 21:28:00,49.1,46.0,30.06,WSW,255,0.0,1.0,89,0.00,,,0.02,weatherlink.com 1.10,2013-09-05 03:28:00,
2013-09-04 21:43:00,49.1,46.0,30.06,WSW,255,1.0,1.0,89,0.00,,,0.02,weatherlink.com 1.10,2013-09-05 03:43:00,
2013-09-04 21:58:00,49.0,46.0,30.06,WSW,255,0.0,1.0,89,0.00,,,0.02,weatherlink.com 1.10,2013-09-05 03:58:00,
2013-09-04 22:13:00,48.8,46.0,30.06,WSW,255,0.0,0.0,91,0.00,,,0.02,weatherlink.com 1.10,2013-09-05 04:13:00,
2013-09-04 22:28:00,48.5,46.0,30.06,WSW,255,0.0,1.0,90,0.00,,,0.02,weatherlink.com 1.10,2013-09-05 04:28:00,
2013-09-04 22:43:00,48.2,45.0,30.06,SSE,147,0.0,2.0,88,0.00,,,0.02,weatherlink.com 1.10,2013-09-05 04:43:00,
2013-09-04 22:58:00,48.7,44.0,30.07,SSE,157,0.0,2.0,83,0.00,,,0.02,weatherlink.com 1.10,2013-09-05 04:58:00,
2013-09-04 23:13:00,48.4,44.0,30.07,WSW,240,0.0,3.0,85,0.00,,,0.02,weatherlink.com 1.10,2013-09-05 05:13:00,
2013-09-04 23:28:00,47.5,45.0,30.07,WSW,242,0.0,1.0,89,0.00,,,0.02,weatherlink.com 1.10,2013-09-05 05:28:00,
2013-09-04 23:43:00,47.0,44.0,30.06,ESE,115,0.0,2.0,90,0.00,,,0.02,weatherlink.com 1.10,2013-09-05 05:43:00,
2013-09-04 23:58:00,46.4,44.0,30.05,ESE,115,1.0,1.0,90,0.00,,,0.02,weatherlink.com 1.10,2013-09-05 05:58:00,